Simultaneous Nadir Overpasses (SNOs) Predictions

Prediction of SNOs between GOES-16 and METOP-C Satellite Orbit:

Table of predicted SNOs for the next 14.0 days since TLE Epoch: 11/16/2024
Index Date Time (GOES-16) GOES-16 Lat,Lon METOP-C Lat,Lon Distance(km) Time Diff (sec)
1 11/16/2024 02:40:29 0.04, -75.17 0.00, -76.99 202.46 80
2 11/17/2024 02:19:45 0.03, -75.17 0.76, -71.92 370.29 80
3 11/18/2024 14:38:38 -0.03, -75.20 0.24, -76.49 146.63 80
4 11/19/2024 14:15:20 -0.02, -75.20 -0.88, -71.50 422.55 80
5 11/21/2024 02:37:01 0.02, -75.18 -0.16, -76.10 103.76 80
6 11/22/2024 02:13:42 0.01, -75.19 0.91, -71.10 466.05 80
7 11/23/2024 14:35:15 -0.01, -75.24 0.08, -75.67 49.17 80
8 11/26/2024 02:33:37 0.01, -75.24 -0.02, -75.27 3.75 80
9 11/28/2024 14:29:11 -0.00, -75.31 -0.09, -74.84 53.32 80
